Regional Weather Roundup
Issued by NWS

Home | Current Version | Previous Version | Text Only | Print | Product List | Glossary Off
Versions: 1 2 3 4 5 6 7 8 9 10 11 12 13 14 15 16 17 18 19 20 21 22 23 24 25 26 27 28 29 30 31 32 33 34 35 36 37 38 39 40 41 42 43 44 45 46 47 48 49 50

000
ASUS45 KCYS 052210
RWRWY

WYOMING REGIONAL WEATHER ROUNDUP
NATIONAL WEATHER SERVICE CHEYENNE WY
300 PM MST THU MAR 05 2015

NOTE:  "FAIR" INDICATES FEW OR NO CLOUDS BELOW 12,000 FEET
WITH NO SIGNIFICANT WEATHER AND/OR OBSTRUCTIONS TO VISIBILITY.

WYZ001-052300-
YELLOWSTONE NATIONAL PARK

CITY           SKY/WX    TMP DP  RH WIND       PRES   REMARKS
LK YELLOWSTONE   N/A     33   4  29 W8        30.27S WCI  26
W YELLOWSTONE  NOT AVBL

$$
WYZ002>013-054>058-071-098>099-052300-
NORTHERN WYOMING

CITY           SKY/WX    TMP DP  RH WIND       PRES   REMARKS
JACKSON        SUNNY     27  10  50 CALM      30.31
CODY           FAIR      43  21  42 E14       30.13S
GREYBULL       FAIR      40  12  32 SE9       30.19F WCI  34
WORLAND        FAIR      40  12  32 SE7       30.18F
SHERIDAN       FAIR      40  21  46 SW6       30.14R
BUFFALO        FAIR      40  12  32 CALM      30.14S
GILLETTE       FAIR      42  18  37 NW17G24   30.11S
HULETT         FAIR      41  18  38 W9G17     30.11S
NEWCASTLE      FAIR      43  10  26 NW18G24   30.14R

$$
WYZ014>020-022>026-101>103-052300-
CENTRAL WYOMING

CITY           SKY/WX    TMP DP  RH WIND       PRES   REMARKS
BIG PINEY      FAIR      41   8  25 N20       30.26R
PINEDALE       FAIR      34  14  44 W12       30.26S WCI  25
DUBOIS         FAIR      36  10  35 NW21G28   30.18S WCI  24
LANDER         FAIR      24  13  62 CALM      30.19R
RIVERTON       FAIR      17   8  67 E5        30.21R WCI  10
CASPER         FAIR      32  20  61 SW20      30.19F WCI  20
DOUGLAS        FAIR      35  21  56 W16       30.18S WCI  25

$$
WYZ021-027>030-104>119-052300-
SOUTHERN WYOMING

CITY           SKY/WX    TMP DP  RH WIND       PRES   REMARKS
EVANSTON       FAIR      35  18  49 SW16      30.34F WCI  25
KEMMERER       FAIR      36  14  41 W21G26    30.30F WCI  24
FORT BRIDGER   FAIR      35  19  52 W15G23    30.35S WCI  25
ROCK SPRINGS   FAIR      35  21  56 W18       30.27S WCI  24
DIXON          FAIR      36  15  43 SW12G18   30.34S WCI  27
RAWLINS        FAIR      30  17  58 W23G33    30.22R WCI  17
SARATOGA       FAIR      30  19  64 W12       30.27R WCI  21
LARAMIE        FAIR      33  14  45 W16       30.17R WCI  23
CHEYENNE       FAIR      40  17  39 N7        30.16R
TORRINGTON     FAIR      44  14  29 W12       30.18S
PINE BLUFFS    MOCLDY    41  16  36 NW20G26   30.19S

$$



USA.gov is the U.S. government's official web portal to all federal, state and local government web resources and services.